Tracking 35280 objects as of 7-Sep-2026
HD Live streaming from Space Station
objects crossing your sky now

STARLINK-5030

Track STARLINK-5030 now!
10-day predictions
STARLINK-5030 is classified as:


NORAD ID: 55418
Int'l Code: 2023-014AD
Launch date: January 31, 2023
Source: United States (US)
Launch site: AIR FORCE WESTERN TEST RANGE (AFWTR)
Your satellite tracking list
Your tracking list is empty




NASA's NSSDC Master Catalog

Two Line Element Set (TLE):
1 55418U 23014AD  26249.62061468 -.00000223  00000-0 -10854-4 0  9990
2 55418  70.0005 348.2777 0003191 270.5445  89.5349 14.98330271198662
Source of the keplerian elements: AFSPC